CRCA-Riverwatch is now Calusa Waterkeeper
Menu
Tidal Tidal Caloosahatchee Data Set #3

Basic water quality data are being collected by the Calusa Waterkeeper and Rangers in the Tidal Caloosahatchee. These data include salinity, temperature and dissolved oxygen.



Tidal Table 3 (Print version)
Table
Zone Date Time Station ID Latitude Longitude Parameter Unit Result
Tidal Caloosahatchee 8/23/2017 9:31 A surface 26°43'21.87"N 81°41'47.79"W Temperature Celsius 30.6
Tidal Caloosahatchee 8/23/2017 A mid depth 26°43'21.87"N 81°41'47.79"W Temperature Celsius 30.4
Tidal Caloosahatchee 8/23/2017 A surface 26°43'21.87"N 81°41'47.79"W D.O. ppm 2.77
Tidal Caloosahatchee 8/23/2017 A mid depth 26°43'21.87"N 81°41'47.79"W D.O. ppm 2.69
Tidal Caloosahatchee 8/23/2017 A surface 26°43'21.87"N 81°41'47.79"W D.O. % sat 37.1
Tidal Caloosahatchee 8/23/2017 A mid depth 26°43'21.87"N 81°41'47.79"W D.O. % sat 35.8
Tidal Caloosahatchee 8/23/2017 A surface 26°43'21.87"N 81°41'47.79"W Salinity PSU 0.2
Tidal Caloosahatchee 8/23/2017 A mid depth 26°43'21.87"N 81°41'47.79"W Salinity PSU 0.2
Tidal Caloosahatchee 8/23/2017 9:40 B surface 26°43'29.48"N 81°42'24.01"W Temperature Celsius 30.2
Tidal Caloosahatchee 8/23/2017 B mid depth 26°43'29.48"N 81°42'24.01"W Temperature Celsius 29.8
Tidal Caloosahatchee 8/23/2017 B surface 26°43'29.48"N 81°42'24.01"W D.O. ppm 3.21
Tidal Caloosahatchee 8/23/2017 B mid depth 26°43'29.48"N 81°42'24.01"W D.O. ppm 3
Tidal Caloosahatchee 8/23/2017 B surface 26°43'29.48"N 81°42'24.01"W D.O. % sat 42.8
Tidal Caloosahatchee 8/23/2017 B mid depth 26°43'29.48"N 81°42'24.01"W D.O. % sat 39.5
Tidal Caloosahatchee 8/23/2017 B surface 26°43'29.48"N 81°42'24.01"W Salinity PSU 0.2
Tidal Caloosahatchee 8/23/2017 B mid depth 26°43'29.48"N 81°42'24.01"W Salinity PSU 0.2
Tidal Caloosahatchee 8/23/2017 9:50 C surface 26°43'9.42"N 81°44'22.02"W Temperature Celsius 30.8
Tidal Caloosahatchee 8/23/2017 C mid depth 26°43'9.42"N 81°44'22.02"W Temperature Celsius 30.5
Tidal Caloosahatchee 8/23/2017 C surface 26°43'9.42"N 81°44'22.02"W D.O. ppm 3.47
Tidal Caloosahatchee 8/23/2017 C mid depth 26°43'9.42"N 81°44'22.02"W D.O. ppm 3.25
Tidal Caloosahatchee 8/23/2017 C surface 26°43'9.42"N 81°44'22.02"W D.O. % sat 46.6
Tidal Caloosahatchee 8/23/2017 C mid depth 26°43'9.42"N 81°44'22.02"W D.O. % sat 43.4
Tidal Caloosahatchee 8/23/2017 C surface 26°43'9.42"N 81°44'22.02"W Salinity PSU 0.2
Tidal Caloosahatchee 8/23/2017 C mid depth 26°43'9.42"N 81°44'22.02"W Salinity PSU 0.2
Tidal Caloosahatchee 8/23/2017 9:55 D surface 26°42'59.86"N 81°45'42.93"W Temperature Celsius 30.7
Tidal Caloosahatchee 8/23/2017 D mid depth 26°42'59.86"N 81°45'42.93"W Temperature Celsius 30.4
Tidal Caloosahatchee 8/23/2017 D surface 26°42'59.86"N 81°45'42.93"W D.O. ppm 3.44
Tidal Caloosahatchee 8/23/2017 D mid depth 26°42'59.86"N 81°45'42.93"W D.O. ppm 3.35
Tidal Caloosahatchee 8/23/2017 D surface 26°42'59.86"N 81°45'42.93"W D.O. % sat 46
Tidal Caloosahatchee 8/23/2017 D mid depth 26°42'59.86"N 81°45'42.93"W D.O. % sat 44.3
Tidal Caloosahatchee 8/23/2017 D surface 26°42'59.86"N 81°45'42.93"W Salinity PSU 0.2
Tidal Caloosahatchee 8/23/2017 D mid depth 26°42'59.86"N 81°45'42.93"W Salinity PSU 0.2
Tidal Caloosahatchee 8/23/2017 10:04 E surface 26°41'58.73"N 81°47'7.22"W Temperature Celsius 32.2
Tidal Caloosahatchee 8/23/2017 E mid depth 26°41'58.73"N 81°47'7.22"W Temperature Celsius 30.8
Tidal Caloosahatchee 8/23/2017 E surface 26°41'58.73"N 81°47'7.22"W D.O. ppm 4.69
Tidal Caloosahatchee 8/23/2017 E mid depth 26°41'58.73"N 81°47'7.22"W D.O. ppm 3.6
Tidal Caloosahatchee 8/23/2017 E surface 26°41'58.73"N 81°47'7.22"W D.O. % sat 64
Tidal Caloosahatchee 8/23/2017 E mid depth 26°41'58.73"N 81°47'7.22"W D.O. % sat 48.2
Tidal Caloosahatchee 8/23/2017 E surface 26°41'58.73"N 81°47'7.22"W Salinity PSU 0.2
Tidal Caloosahatchee 8/23/2017 E mid depth 26°41'58.73"N 81°47'7.22"W Salinity PSU 0.2
Tidal Caloosahatchee 8/23/2017 10:13 F surface 26°41'39.28"N 81°47'46.33"W Temperature Celsius 34.1
Tidal Caloosahatchee 8/23/2017 F mid depth 26°41'39.28"N 81°47'46.33"W Temperature Celsius 34.1
Tidal Caloosahatchee 8/23/2017 F surface 26°41'39.28"N 81°47'46.33"W D.O. ppm 5.06
Tidal Caloosahatchee 8/23/2017 F mid depth 26°41'39.28"N 81°47'46.33"W D.O. ppm 4.85
Tidal Caloosahatchee 8/23/2017 F surface 26°41'39.28"N 81°47'46.33"W D.O. % sat 70.5
Tidal Caloosahatchee 8/23/2017 F mid depth 26°41'39.28"N 81°47'46.33"W D.O. % sat 68.8
Tidal Caloosahatchee 8/23/2017 F surface 26°41'39.28"N 81°47'46.33"W Salinity PSU 0.3
Tidal Caloosahatchee 8/23/2017 F mid depth 26°41'39.28"N 81°47'46.33"W Salinity PSU 0.3
Tidal Caloosahatchee 8/23/2017 10:21 G surface 26°41'45.57"N 81°48'40.23"W Temperature Celsius 33.6
Tidal Caloosahatchee 8/23/2017 G mid depth 26°41'45.57"N 81°48'40.23"W Temperature Celsius 32
Tidal Caloosahatchee 8/23/2017 G surface 26°41'45.57"N 81°48'40.23"W D.O. ppm 5.01
Tidal Caloosahatchee 8/23/2017 G mid depth 26°41'45.57"N 81°48'40.23"W D.O. ppm 4.26
Tidal Caloosahatchee 8/23/2017 G surface 26°41'45.57"N 81°48'40.23"W D.O. % sat 70.5
Tidal Caloosahatchee 8/23/2017 G mid depth 26°41'45.57"N 81°48'40.23"W D.O. % sat 58.3
Tidal Caloosahatchee 8/23/2017 G surface 26°41'45.57"N 81°48'40.23"W Salinity PSU 0.2
Tidal Caloosahatchee 8/23/2017 G mid depth 26°41'45.57"N 81°48'40.23"W Salinity PSU 0.2


Calusa Waterkeeper is a non-profit organization dedicated to the protection of the Caloosahatchee River & Estuary, Lake Okeechobee, Nicodemus Slough, Charlotte Harbor, Estero Bay, the near-shore waters of Lee County, and their watersheds, through education and promotion of responsible use and enjoyment by all people.
Contact us
239-444-8584
info@CalusaWaterkeeper.org
Address
P.O. Box 1165
Ft. Myers, FL 33902
Membership Data and Governance Documents and Newsletters
Copyright © 2017 Calusa Waterkeeper.

Web Page Design, Software, and News Postings
Copyright © 2017 Southern DataStream, Inc. All rights reserved.

CRCA "Riverwatch" is a non-profit organization dedicated to the protection of the Caloosahatchee River and its watershed, through education and promotion of responsible use and enjoyment by all people.



Contact us
239-245-9954
riverwatch@caloosahatchee.org



Address
P.O. Box 2199
LaBelle, FL 33935

Membership Data and Governance Documents
Copyright © 2015 Caloosahatchee River Citizens Association, Inc.


Web Page Design, Software, and News Postings
Copyright © 2015 Southern DataStream, Inc. All rights reserved.